Regional Weather Roundup
Issued by NWS Sterling, VA

Home | Current Version | Previous Version | Graphics & Text | Print | Product List | Glossary On
Versions: 1 2 3 4 5 6 7 8 9 10 11 12 13 14 15 16 17 18 19 20 21 22 23 24 25 26 27 28 29 30 31 32 33 34 35 36 37 38 39 40 41 42 43 44 45 46 47 48 49 50
000
ASUS41 KLWX 020910
RWRLWX

REGIONAL WEATHER ROUNDUP
NATIONAL WEATHER SERVICE BALTIMORE MD/WASHINGTON DC
500 AM EDT WED SEP 02 2015

Note: "FAIR" indicates few or no clouds below 12,000 feet
with no significant weather and/or obstructions to visibility.
 TC=TEMPERATURE CELSIUS

 * =Non NWS site. Station does not report precipitation (e.g. rain,
    snow, etc.), thunder, or fog.

DCZ001-MDZ009-015-VAZ040>042-051-053>054-021000-
WASHINGTON METRO

CITY           SKY/WX    TMP DP  RH WIND       PRES   REMARKS
WASHINGTON NAT CLOUDY    77  72  84 S3        30.03S
DULLES         MOCLDY    72  66  81 NW3       30.04S
ANDREWS AFB    PTCLDY    69  68  94 CALM      30.02S
FT BELVOIR     PTCLDY    71  69  95 CALM      30.03R FOG
QUANTICO       MOCLDY    74  70  87 CALM      30.03S
COLLEGE PARK*  PTCLDY    72  72 100 CALM      30.02S
LEESBURG*      PTCLDY    70  70 100 W7        30.06S
MANASSAS*      PTCLDY    70  70 100 CALM      30.04S
GAITHERSBURG*  PTCLDY    68  64  88 CALM      30.08S

$$

MDZ006>007-011-014-021000-
BALTIMORE METRO

CITY           SKY/WX    TMP DP  RH WIND       PRES   REMARKS
BWI AIRPORT    MOCLDY    73  69  87 CALM      30.02S
MD SCIENCE CTR   N/A     77  68  73 MISG      30.03R
ANNAPOLIS      MOCLDY    77  75  93 N3        30.01S FOG
FORT MEADE*    CLEAR     68  64  88 CALM      30.05S

$$

MDZ012-015-019>023-021000-
MARYLAND EASTERN SHORE

CITY           SKY/WX    TMP DP  RH WIND       PRES   REMARKS
OCEAN CITY     PTCLDY    74  70  87 W6        30.02R
SALISBURY      PTCLDY    69  68  96 S3        30.02S
BAY BRIDGE AP*   N/A     75  75 100 CALM      30.02S
CAMBRIDGE*     PTCLDY    72  68  88 CALM      30.02S

$$

MDZ017>025-021000-
SOUTHERN MARYLAND

CITY           SKY/WX    TMP DP  RH WIND       PRES   REMARKS
PATUXENT RIVER MOCLDY    73  69  87 W5        30.02R
ST INIGOES     MOCLDY    72  70  93 CALM      30.02R
LEONARDTOWN*   NOT AVBL

$$

MDZ003>005-021000-
NORTH CENTRAL MARYLAND

CITY           SKY/WX    TMP DP  RH WIND       PRES   REMARKS
FREDERICK*     PTCLDY    64  64 100 CALM      30.07S FOG
HAGERSTOWN APT PTCLDY    71  64  78 CALM      30.06S
WESTMINSTER*   PTCLDY    70  63  78 CALM      30.06S

$$

MDZ501>502-021000-
WESTERN MARYLAND

CITY           SKY/WX    TMP DP  RH WIND       PRES   REMARKS
OAKLAND*       MOCLDY    64  63  94 CALM      30.20S
CUMBERLAND*    PTCLDY    68  66  94 CALM      30.12S

$$

VAZ025>031-021000-
SHENANDOAH VALLEY

CITY           SKY/WX    TMP DP  RH WIND       PRES   REMARKS
WINCHESTER*    PTCLDY    68  66  94 CALM      30.07S
FRONT ROYAL*   PTSUNNY   70  66  88 CALM      30.06S
LURAY*         FAIR      70  68  94 CALM      30.08S
NEW MARKET*    FAIR      70  67  92 CALM      30.08S
STAUNTON*      MOCLDY    71  67  89 CALM      30.12S
WAYNESBORO*    FAIR      71  65  84 CALM      30.12S

$$

WVZ021-048>050-054>055-021000-
EASTERN WEST VIRGINIA PANHANDLE

CITY           SKY/WX    TMP DP  RH WIND       PRES   REMARKS
MARTINSBURG    PTCLDY    67  65  93 CALM      30.06S FOG
PETERSBURG*    MOCLDY    67  66  97 CALM      30.11F FOG

$$

VAZ036>039-050-021000-
CENTRAL FOOTHILLS

CITY           SKY/WX    TMP DP  RH WIND       PRES   REMARKS
CHARLOTTESVILL MOCLDY    73  69  87 CALM      30.05S FOG
CULPEPER*      MOCLDY    68  68 100 CALM      30.05S FOG
ORANGE*        MOCLDY    72  70  94 CALM      30.06S
GORDONSVILLE*  FAIR      69  68  96 CALM      30.04S
WARRENTON*     FOG       67  67 100 CALM      30.04S VSB 1/2

$$

VAZ055>057-021000-
NORTH AND CENTRAL PIEDMONT

CITY           SKY/WX    TMP DP  RH WIND       PRES   REMARKS
FREDERICKSBRG* MOCLDY    73  73 100 CALM      30.02S
STAFFORD*      MOCLDY    67  65  94 CALM      30.07S FOG

$$

NCZ024-NYZ072-PAZ021-071-VAZ022-071-021000-
OTHER REGIONAL OBSERVATIONS

CITY           SKY/WX    TMP DP  RH WIND       PRES   REMARKS
NEW YORK CITY  CLEAR     75  65  70 CALM      30.05S
PHILADELPHIA   MOCLDY    74  70  87 CALM      30.03S FOG
PITTSBURGH     CLOUDY    71  66  84 CALM      30.09S
ROANOKE        MOCLDY    70  66  87 CALM      30.13S
RICHMOND       CLOUDY    75  69  81 CALM      30.04S
RALEIGH        PTCLDY    70  68  93 CALM      30.07R

$$

ANZ530>537-021000-
MARINE OBSERVATIONS

STATION/POSITION TIME  TEMP    WIND        PRES
                       AIR SEA DIR/SP/G
                 (UTC) (F)     (DEG/KT/KT) (MB)
THOMAS PT LIGHT  NOT AVBL
BALT KEY BRIDGE  0800   77      40/  5/  5 1016.5R
COVE POINT       0800   78     240/  1/  3 1017.1F
LEWISETTA        0800   76 81  240/  6/  8 1016.2F
SOLOMONS ISLAND  0800      81                N/A
PINEY POINT      0805          290/  4/  5   N/A

$$



USA.gov is the U.S. government's official web portal to all federal, state and local government web resources and services.